Location: Dittelspoint
(48.7198°N, 10.7214°E)
Time: 08:18:02
(UTC+00:00)

SL-16 R/B - Pass Details

Date: 09 April 2020
Orbit: 842 x 846 km, 71.0° (Epoch: 24 May)

Event Time Altitude Azimuth Distance (km) Brightness Sun altitude
Rises 21:28:41 0° 334° (NNW) 3,416 6.6 -28.4°
Reaches altitude 10° 21:31:19 10° 342° (NNW) 2,478 5.5 -28.6°
Maximum altitude 21:36:39 40° 52° (NE) 1,233 3.0 -29.0°
Enters shadow 21:36:42 40° 53° (NE) 1,233 3.0 -29.0°
